| time (UTC) | temp F | wind direction | speed MPH | gust MPH | rain 1hr in | rain 24hr in | rain mn in | humidity % | barometer mb |
| 20260502221203 | 52 | 333 | 0.0 | 3.0 | 0.00 | 0.00 | 0.00 | 97 | |
| 20260502220204 | 52 | 331 | 1.0 | 3.0 | 0.00 | 0.00 | 0.00 | 97 | |
| 20260502215415 | 52 | 319 | 0.0 | 2.0 | 0.00 | 0.00 | 0.00 | 97 | |
| 20260502214204 | 52 | 323 | 1.0 | 4.0 | 0.00 | 0.00 | 0.00 | 97 | |
| 20260502213204 | 52 | 314 | 0.0 | 2.0 | 0.00 | 0.00 | 0.00 | 97 | |
| 20260502212204 | 52 | 300 | 1.0 | 3.0 | 0.00 | 0.00 | 0.00 | 97 | |
| 20260502211204 | 53 | 291 | 1.0 | 4.0 | 0.00 | 0.00 | 0.00 | 97 | |
| 20260502210205 | 53 | 238 | 0.0 | 2.0 | 0.00 | 0.00 | 0.00 | 97 | |
| 20260502205416 | 53 | 245 | 0.0 | 1.0 | 0.00 | 0.00 | 0.00 | 97 | |
| 20260502204204 | 53 | 253 | 1.0 | 2.0 | 0.00 | 0.00 | 0.00 | 97 | |
| 20260502203204 | 53 | 244 | 0.0 | 1.0 | 0.00 | 0.00 | 0.00 | 97 | |
| 20260502202414 | 53 | 247 | 1.0 | 2.0 | 0.00 | 0.00 | 0.00 | 96 | |
| 20260502201203 | 53 | 239 | 1.0 | 4.0 | 0.00 | 0.00 | 0.00 | 96 | |
| 20260502200416 | 53 | 230 | 1.0 | 2.0 | 0.00 | 0.00 | 0.00 | 96 | |
| 20260502195417 | 53 | 229 | 1.0 | 3.0 | 0.00 | 0.00 | 0.00 | 96 | |
| 20260502194203 | 53 | 218 | 0.0 | 2.0 | 0.00 | 0.00 | 0.00 | 96 | |
| 20260502193204 | 54 | 254 | 0.0 | 1.0 | 0.00 | 0.00 | 0.00 | 96 | |
| 20260502192203 | 54 | 256 | 0.0 | 1.0 | 0.00 | 0.00 | 0.00 | 96 | |
| 20260502191203 | 54 | 260 | 1.0 | 2.0 | 0.00 | 0.00 | 0.00 | 96 | |
| 20260502190416 | 54 | 261 | 0.0 | 1.0 | 0.00 | 0.00 | 0.00 | 96 | |
| 20260502185203 | 54 | 247 | 0.0 | 1.0 | 0.00 | 0.00 | 0.00 | 96 | |
| 20260502184203 | 54 | 231 | 1.0 | 3.0 | 0.00 | 0.00 | 0.00 | 95 | |
| 20260502183204 | 54 | 223 | 1.0 | 3.0 | 0.00 | 0.00 | 0.00 | 95 | |
| 20260502182203 | 55 | 220 | 1.0 | 4.0 | 0.00 | 0.00 | 0.00 | 95 | |
| 20260502181416 | 55 | 218 | 0.0 | 1.0 | 0.00 | 0.00 | 0.00 | 95 | |
| 20260502180203 | 55 | 136 | 0.0 | 1.0 | 0.00 | 0.00 | 0.00 | 95 | |
| 20260502170417 | 55 | 20 | 1.0 | 3.0 | 0.00 | 0.00 | 0.00 | 94 | |
| 20260502163205 | 56 | 330 | 1.0 | 4.0 | 0.00 | 0.00 | 0.00 | 93 | |
| 20260502162205 | 56 | 295 | 1.0 | 2.0 | 0.00 | 0.00 | 0.00 | 92 | |
| 20260502161205 | 56 | 276 | 1.0 | 3.0 | 0.00 | 0.00 | 0.00 | 91 | |
| 20260502160413 | 56 | 253 | 1.0 | 3.0 | 0.00 | 0.00 | 0.00 | 90 | |
| 20260502152205 | 59 | 138 | 1.0 | 4.0 | 0.00 | 0.00 | 0.00 | 80 | |
| 20260502151205 | 60 | 135 | 1.0 | 5.0 | 0.00 | 0.00 | 0.00 | 76 | |
| 20260502150205 | 61 | 119 | 1.0 | 2.0 | 0.00 | 0.00 | 0.00 | 73 | |
| 20260502130205 | 63 | 197 | 1.0 | 2.0 | 0.00 | 0.00 | 0.00 | 63 | |
| 20260502123205 | 63 | 244 | 1.0 | 3.0 | 0.00 | 0.01 | 0.00 | 63 | |
| 20260502122205 | 63 | 220 | 1.0 | 3.0 | 0.00 | 0.01 | 0.00 | 64 | |
| 20260502121205 | 63 | 259 | 1.0 | 5.0 | 0.00 | 0.01 | 0.00 | 64 | |
| 20260502120416 | 62 | 300 | 2.0 | 4.0 | 0.00 | 0.01 | 0.00 | 64 | |
| 20260502115205 | 63 | 319 | 2.0 | 4.0 | 0.00 | 0.01 | 0.00 | 65 | |
| 20260502114205 | 63 | 213 | 1.0 | 3.0 | 0.00 | 0.01 | 0.00 | 64 | |
| 20260502113418 | 63 | 237 | 1.0 | 4.0 | 0.00 | 0.01 | 0.00 | 65 | |
| 20260502112205 | 62 | 276 | 1.0 | 3.0 | 0.00 | 0.01 | 0.00 | 65 | |
| 20260502111205 | 62 | 236 | 1.0 | 3.0 | 0.00 | 0.01 | 0.00 | 67 | |
| 20260502110205 | 62 | 195 | 1.0 | 4.0 | 0.00 | 0.01 | 0.00 | 67 | |
| 20260502105204 | 61 | 201 | 2.0 | 5.0 | 0.00 | 0.01 | 0.00 | 66 | |
| 20260502104418 | 61 | 207 | 1.0 | 3.0 | 0.00 | 0.01 | 0.00 | 65 | |
| 20260502103205 | 61 | 198 | 2.0 | 4.0 | 0.00 | 0.01 | 0.00 | 67 | |
| 20260502102205 | 61 | 185 | 2.0 | 4.0 | 0.00 | 0.01 | 0.00 | 68 | |
| 20260502101205 | 61 | 159 | 1.0 | 5.0 | 0.00 | 0.01 | 0.00 | 69 | |
| 20260502100205 | 60 | 132 | 2.0 | 5.0 | 0.00 | 0.01 | 0.00 | 70 | |
| 20260502091204 | 58 | 197 | 2.0 | 3.0 | 0.00 | 0.01 | 0.00 | 72 | |
| 20260502090205 | 59 | 214 | 1.0 | 2.0 | 0.00 | 0.01 | 0.00 | 72 | |
| 20260502071205 | 54 | 160 | 0.0 | 2.0 | 0.00 | 0.01 | 0.00 | 91 | |
| 20260502070204 | 53 | 180 | 0.0 | 1.0 | 0.00 | 0.01 | 0.00 | 92 | |
| 20260502065204 | 53 | 184 | 0.0 | 2.0 | 0.00 | 0.01 | 0.00 | 94 | |
| 20260502064204 | 52 | 182 | 0.0 | 2.0 | 0.00 | 0.01 | 0.00 | 95 | |
| 20260502063205 | 50 | 193 | 0.0 | 2.0 | 0.00 | 0.01 | 0.00 | 95 | |
| 20260502062205 | 50 | 199 | 1.0 | 3.0 | 0.00 | 0.01 | 0.00 | 96 | |
| 20260502061204 | 49 | 196 | 0.0 | 2.0 | 0.00 | 0.01 | 0.00 | 96 | |
| 20260502060204 | 49 | 191 | 1.0 | 2.0 | 0.00 | 0.01 | 0.00 | 96 | |
| 20260502055204 | 49 | 185 | 1.0 | 2.0 | 0.00 | 0.01 | 0.00 | 96 | |
| 20260502054204 | 48 | 186 | 1.0 | 2.0 | 0.00 | 0.01 | 0.00 | 96 | |
| 20260502053204 | 48 | 177 | 1.0 | 2.0 | 0.00 | 0.01 | 0.00 | 96 | |
| 20260502052204 | 48 | 150 | 0.0 | 1.0 | 0.00 | 0.01 | 0.00 | 96 | |
| 20260502051204 | 48 | 154 | 0.0 | 1.0 | 0.00 | 0.01 | 0.00 | 96 | |
| 20260502050204 | 48 | 154 | 1.0 | 2.0 | 0.00 | 0.01 | 0.00 | 96 | |
| 20260502045205 | 48 | 153 | 1.0 | 2.0 | 0.00 | 0.01 | 0.00 | 96 | |
| 20260502044204 | 48 | 156 | 1.0 | 1.0 | 0.00 | 0.01 | 0.00 | 96 | |
| 20260502043204 | 48 | 172 | 0.0 | 2.0 | 0.00 | 0.01 | 0.00 | 96 | |
| 20260502042204 | 48 | 169 | 0.0 | 1.0 | 0.00 | 0.01 | 0.00 | 95 | |
| 20260502041205 | 48 | 164 | 0.0 | 1.0 | 0.00 | 0.01 | 0.00 | 95 | |
| 20260502040204 | 48 | 160 | 1.0 | 2.0 | 0.00 | 0.01 | 0.00 | 95 | |
| 20260502035204 | 48 | 175 | 1.0 | 2.0 | 0.00 | 0.01 | 0.00 | 95 | |
| 20260502034204 | 48 | 185 | 1.0 | 2.0 | 0.00 | 0.01 | 0.00 | 95 | |
| 20260502033204 | 48 | 172 | 1.0 | 3.0 | 0.00 | 0.01 | 0.00 | 95 | |
| 20260502032414 | 48 | 174 | 1.0 | 2.0 | 0.00 | 0.01 | 0.00 | 94 | |
| 20260502031415 | 48 | 201 | 0.0 | 2.0 | 0.00 | 0.01 | 0.00 | 94 | |
| 20260502030205 | 49 | 206 | 1.0 | 1.0 | 0.00 | 0.01 | 0.00 | 94 | |
| 20260502025204 | 49 | 204 | 0.0 | 2.0 | 0.00 | 0.01 | 0.00 | 94 | |
| 20260502024205 | 49 | 201 | 0.0 | 2.0 | 0.00 | 0.01 | 0.00 | 94 | |
| 20260502023204 | 49 | 203 | 1.0 | 4.0 | 0.00 | 0.01 | 0.00 | 94 | |
| 20260502022204 | 49 | 204 | 1.0 | 2.0 | 0.00 | 0.01 | 0.00 | 94 | |
| 20260502021204 | 49 | 197 | 1.0 | 3.0 | 0.00 | 0.01 | 0.00 | 94 | |
| 20260502020205 | 48 | 177 | 1.0 | 3.0 | 0.00 | 0.01 | 0.00 | 93 | |
| 20260502015203 | 48 | 156 | 1.0 | 2.0 | 0.00 | 0.01 | 0.00 | 92 | |
| 20260502014204 | 49 | 158 | 0.0 | 1.0 | 0.00 | 0.01 | 0.00 | 92 | |
| 20260502013204 | 49 | 172 | 0.0 | 2.0 | 0.00 | 0.01 | 0.00 | 92 | |
| 20260502012203 | 49 | 196 | 0.0 | 1.0 | 0.00 | 0.01 | 0.00 | 92 | |
| 20260502011417 | 49 | 211 | 0.0 | 1.0 | 0.00 | 0.01 | 0.00 | 92 | |
| 20260502010204 | 49 | 244 | 0.0 | 1.0 | 0.00 | 0.01 | 0.00 | 92 | |
| 20260502005419 | 50 | 261 | 0.0 | 1.0 | 0.00 | 0.01 | 0.00 | 92 | |
| 20260502004204 | 50 | 262 | 1.0 | 2.0 | 0.00 | 0.01 | 0.00 | 93 | |
| 20260502003204 | 49 | 218 | 0.0 | 3.0 | 0.00 | 0.01 | 0.00 | 93 | |
| 20260502002204 | 49 | 196 | 0.0 | 2.0 | 0.00 | 0.01 | 0.00 | 92 | |
| 20260502001204 | 49 | 205 | 0.0 | 0.0 | 0.00 | 0.01 | 0.00 | 92 | |
| 20260502000204 | 50 | 218 | 0.0 | 0.0 | 0.00 | 0.01 | 0.00 | 91 | |
| 20260501235204 | 50 | 208 | 0.0 | 3.0 | 0.00 | 0.01 | 0.00 | 91 | |
| 20260501234415 | 50 | 209 | 1.0 | 2.0 | 0.00 | 0.01 | 0.00 | 91 | |
| 20260501233205 | 50 | 215 | 0.0 | 2.0 | 0.00 | 0.01 | 0.00 | 91 | |
| 20260501232203 | 50 | 208 | 0.0 | 2.0 | 0.00 | 0.01 | 0.00 | 90 | |
| 20260501231204 | 50 | 209 | 1.0 | 3.0 | 0.00 | 0.01 | 0.00 | 90 | |
| 20260501230204 | 51 | 203 | 0.0 | 2.0 | 0.00 | 0.01 | 0.00 | 89 | |
| 20260501225204 | 51 | 201 | 0.0 | 2.0 | 0.00 | 0.01 | 0.01 | 89 | |
| 20260501224204 | 51 | 209 | 1.0 | 3.0 | 0.00 | 0.01 | 0.01 | 89 | |
| 20260501223204 | 51 | 212 | 2.0 | 4.0 | 0.00 | 0.01 | 0.01 | 88 | |
| 20260501222204 | 51 | 215 | 1.0 | 4.0 | 0.00 | 0.01 | 0.01 | 88 |